Location: NCO
(38.4404°N, 77.1340°W)
Time: 07:54:44
(UTC-04:00)

Tiangong 1 - Visible Passes

Search period start: 23 April 2017 00:00
Search period end: 03 May 2017 00:00
Orbit: 330 x 353 km, 42.8° (Epoch: 21 April)

Date Brightness Start Highest point End Pass type
(mag) Time Alt. Az. Time Alt. Az. Time Alt. Az.
23 Apr 2.3 05:00:52 17° NW 05:02:30 32° N 05:05:07 10° ENE visible
24 Apr 4.0 03:50:42 16° NE 03:50:42 16° NE 03:51:27 10° ENE visible
24 Apr 1.9 05:22:12 10° WNW 05:24:56 43° NNE 05:27:41 10° E visible
25 Apr 2.8 04:11:52 28° NNE 04:11:52 28° NNE 04:13:50 10° ENE visible
25 Apr 0.8 05:44:22 10° WNW 05:47:12 86° NNE 05:50:03 10° ESE visible
26 Apr 1.7 04:33:07 41° NNW 04:33:31 45° NNE 04:36:16 10° E visible
27 Apr 0.6 04:54:29 32° WNW 04:55:38 89° SSW 04:58:27 10° ESE visible
28 Apr 1.5 05:16:04 19° W 05:17:31 33° SSW 05:20:06 10° SE visible
29 Apr 3.9 04:06:32 10° ESE 04:06:32 10° ESE 04:06:35 10° ESE visible
29 Apr 2.9 05:37:55 10° WSW 05:39:10 12° SW 05:40:26 10° S visible
01 May 2.7 21:07:57 10° SSW 21:09:11 17° S 21:09:11 17° S visible
02 May 1.0 21:28:45 10° SW 21:31:16 48° S 21:31:16 48° S visible
